Location: Joplin
(37.0842°N, 94.5131°W)
Time: 18:54:53
(UTC-06:00)

AO-7 - Visible Passes

Search period start: 16 November 2019 00:00
Search period end: 26 November 2019 00:00
Orbit: 1439 x 1459 km, 101.8° (Epoch: 16 November)

Date Brightness Start Highest point End Pass type
(mag) Time Alt. Az. Time Alt. Az. Time Alt. Az.
16 Nov ? 03:13:43 10° NNE 03:21:23 40° E 03:29:02 10° SSE visible
16 Nov ? 05:06:24 10° N 05:14:05 44° WNW 05:21:47 10° SW visible
17 Nov ? 02:16:40 10° ENE 02:20:45 14° E 02:24:49 10° ESE visible
17 Nov ? 04:06:07 10° NNE 04:14:29 84° ESE 04:22:50 10° SSW visible
17 Nov ? 06:00:30 10° N 06:06:13 21° NW 06:11:58 10° W visible
18 Nov ? 03:06:52 10° NE 03:14:20 36° E 03:21:46 10° SSE visible
18 Nov ? 04:59:18 10° N 05:07:09 48° WNW 05:15:00 10° SW visible
19 Nov ? 02:10:35 10° ENE 02:13:38 12° E 02:16:39 10° ESE visible
19 Nov ? 03:59:07 10° NNE 04:07:28 77° ESE 04:15:49 10° SSW visible
19 Nov ? 05:53:16 10° N 05:59:21 23° NW 06:05:27 10° WSW visible
20 Nov ? 03:00:02 10° NE 03:07:16 32° E 03:14:27 10° SSE visible
20 Nov ? 04:52:13 10° N 05:00:12 53° WNW 05:08:11 10° SW visible
21 Nov ? 02:05:22 10° E 02:06:29 10° E 02:07:35 10° E visible
21 Nov ? 03:52:08 10° NNE 04:00:27 70° ESE 04:08:46 10° S visible
21 Nov ? 05:46:03 10° N 05:52:28 26° WNW 05:58:54 10° WSW visible
22 Nov ? 02:53:15 10° NE 03:00:11 29° E 03:07:06 10° SSE visible
22 Nov ? 04:45:08 10° N 04:53:14 58° WNW 05:01:21 10° SW visible
23 Nov ? 03:45:10 10° NNE 03:53:26 64° ESE 04:01:41 10° S visible
23 Nov ? 05:38:52 10° N 05:45:34 28° WNW 05:52:18 10° WSW visible
24 Nov ? 02:46:29 10° NE 02:53:07 26° E 02:59:41 10° SSE visible
24 Nov ? 04:38:05 10° N 04:46:16 64° WNW 04:54:28 10° SSW visible
24 Nov ? 06:34:03 10° NNW 06:37:24 13° NW 06:40:46 10° WNW visible
25 Nov ? 03:38:13 10° NNE 03:46:25 57° ESE 03:54:34 10° S visible
25 Nov ? 05:31:42 10° N 05:38:40 31° WNW 05:45:39 10° WSW visible
